DW6881 Weather Reports


Display with metric or nautical units.
time (UTC)temp
F
wind
direction
speed
MPH
gust
MPH
rain 1hr
in
rain 24hr
in
rain mn
in
humidity
%
barometer
mb
20260508012511 53 314 1.0 3.0 0.00 0.00 0.00 48 1009.4
20260508011503 53 314 1.0 4.0 0.00 0.00 0.00 48 1009.4
20260508010946 53 314 2.0 7.0 0.00 0.00 0.00 47 1009.4
20260508005917 53 314 4.0 13.0 0.00 0.00 0.00 46 1009.1
20260508004911 54 316 4.0 13.0 0.00 0.00 0.00 47 1009.1
20260508004412 54 314 4.0 11.0 0.00 0.00 0.00 46 1008.9
20260508003910 54 314 4.0 11.0 0.00 0.00 0.00 46 1008.9
20260508003410 55 314 5.0 14.0 0.00 0.00 0.00 45 1008.9
20260508002910 55 314 5.0 14.0 0.00 0.00 0.00 45 1008.6
20260508002359 55 313 5.0 12.0 0.00 0.00 0.00 44 1008.6
20260508001842 55 313 5.0 14.0 0.00 0.00 0.00 44 1008.7
20260508001326 56 312 5.0 14.0 0.00 0.00 0.00 43 1008.6
20260508000814 56 312 6.0 14.0 0.00 0.00 0.00 43 1008.6
20260508000309 56 306 5.0 13.0 0.00 0.00 0.00 42 1008.6
20260507235810 57 289 4.0 13.0 0.00 0.00 0.00 41 1008.4
20260507235309 57 272 6.0 15.0 0.00 0.00 0.00 40 1008.4
20260507234808 57 271 7.0 15.0 0.00 0.00 0.00 39 1008.4
20260507234311 57 315 7.0 13.0 0.00 0.00 0.00 40 1008.4
20260507233809 58 279 5.0 12.0 0.00 0.00 0.00 40 1008.4
20260507233312 58 275 5.0 12.0 0.00 0.00 0.00 39 1008.5
20260507232811 58 281 5.0 14.0 0.00 0.00 0.00 38 1008.3
20260507232306 58 266 6.0 14.0 0.00 0.00 0.00 39 1008.3
20260507231756 58 272 5.0 12.0 0.00 0.00 0.00 39 1008.3
20260507231250 58 282 4.0 11.0 0.00 0.00 0.00 39 1008.1
20260507230750 58 302 4.0 11.0 0.00 0.00 0.00 39 1008.1
20260507230250 58 308 4.0 10.0 0.00 0.00 0.00 38 1008.1
20260507225748 59 316 6.0 15.0 0.00 0.00 0.00 38 1008.1
20260507225246 59 316 7.0 22.0 0.00 0.00 0.00 36 1008.1
20260507224244 59 319 6.0 17.0 0.00 0.00 0.00 37 1008.0
20260507223738 59 234 5.0 13.0 0.00 0.00 0.00 35 1008.0
20260507222736 60 278 6.0 14.0 0.00 0.00 0.00 37 1007.9
20260507222236 60 252 7.0 17.0 0.00 0.00 0.00 36 1007.9
20260507221736 60 326 6.0 17.0 0.00 0.00 0.00 37 1007.9
20260507221234 60 251 4.0 11.0 0.00 0.00 0.00 35 1007.6
20260507220734 60 274 4.0 10.0 0.00 0.00 0.00 38 1007.6
20260507220229 60 273 5.0 15.0 0.00 0.00 0.00 34 1007.6
20260507215723 60 276 6.0 18.0 0.00 0.00 0.00 36 1007.7
20260507215217 61 233 5.0 18.0 0.00 0.00 0.00 32 1007.7
20260507214712 61 325 5.0 14.0 0.00 0.00 0.00 33 1007.7
20260507214201 62 261 5.0 11.0 0.00 0.00 0.00 31 1007.5
20260507213648 62 254 4.0 11.0 0.00 0.00 0.00 33 1007.6
20260507212635 61 319 6.0 18.0 0.00 0.00 0.00 36 1007.6
20260507212130 60 223 5.0 13.0 0.00 0.00 0.00 36 1007.6
20260507211623 60 217 8.0 21.0 0.00 0.00 0.00 37 1007.6
20260507211118 60 320 8.0 21.0 0.00 0.00 0.00 34 1007.2
20260507210612 60 267 6.0 16.0 0.00 0.00 0.00 34 1007.2
20260507205600 60 241 5.0 12.0 0.00 0.00 0.00 34 1007.1
20260507205054 60 263 6.0 13.0 0.00 0.00 0.00 34 1007.1
20260507204547 60 238 6.0 13.0 0.00 0.00 0.00 35 1007.1
20260507204041 60 258 5.0 11.0 0.00 0.00 0.00 33 1007.1
20260507202522 60 321 7.0 16.0 0.00 0.00 0.00 37 1007.5
20260507202017 61 319 7.0 16.0 0.00 0.00 0.00 34 1007.5
20260507201004 62 329 8.0 19.0 0.00 0.00 0.00 35 1007.5
20260507200501 61 224 8.0 18.0 0.00 0.00 0.00 34 1007.4
20260507195952 61 239 8.0 18.0 0.00 0.00 0.00 35 1007.5
20260507195446 60 298 9.0 18.0 0.00 0.00 0.00 38 1007.5
20260507194941 60 320 7.0 17.0 0.00 0.00 0.00 39 1007.4
20260507194430 60 328 4.0 16.0 0.00 0.00 0.00 41 1007.8
20260507193921 60 241 4.0 13.0 0.00 0.00 0.00 39 1007.8
20260507193414 60 226 6.0 13.0 0.00 0.00 0.00 41 1007.8
20260507192908 60 245 6.0 15.0 0.00 0.00 0.00 37 1007.6
20260507191855 61 250 4.0 14.0 0.00 0.00 0.00 40 1007.6
20260507191349 61 283 6.0 14.0 0.00 0.00 0.00 42 1007.6
20260507190843 61 258 7.0 25.0 0.00 0.00 0.00 37 1007.6
20260507190336 60 319 8.0 25.0 0.00 0.00 0.00 43 1007.6
20260507185832 60 320 6.0 19.0 0.00 0.00 0.00 41 1007.8
20260507185321 60 208 6.0 14.0 0.00 0.00 0.00 41 1007.8
20260507184816 60 194 7.0 15.0 0.00 0.00 0.00 39 1007.8
20260507184309 60 260 6.0 15.0 0.00 0.00 0.00 44 1007.9
20260507183804 60 257 7.0 14.0 0.00 0.00 0.00 37 1007.9
20260507183258 61 295 7.0 17.0 0.00 0.00 0.00 38 1007.9
20260507182248 61 238 4.0 9.0 0.00 0.00 0.00 42 1007.9
20260507181729 60 237 5.0 11.0 0.00 0.00 0.00 44 1007.9
20260507181224 60 237 7.0 15.0 0.00 0.00 0.00 43 1007.8
20260507180719 60 223 7.0 16.0 0.00 0.00 0.00 40 1007.8
20260507180218 60 266 6.0 16.0 0.00 0.00 0.00 49 1007.8
20260507175719 60 245 5.0 11.0 0.00 0.00 0.00 48 1008.1
20260507174717 59 218 6.0 13.0 0.00 0.00 0.00 42 1008.1
20260507174219 60 219 7.0 13.0 0.00 0.00 0.00 43 1008.2
20260507173710 60 224 7.0 11.0 0.00 0.00 0.00 45 1008.2
20260507172712 60 228 7.0 14.0 0.00 0.00 0.00 47 1008.4
20260507172200 60 216 8.0 17.0 0.00 0.00 0.00 46 1008.4
20260507171648 60 211 7.0 17.0 0.00 0.00 0.00 44 1008.4
20260507170625 60 236 7.0 20.0 0.00 0.00 0.00 42 1008.6
20260507170106 60 224 5.0 20.0 0.00 0.00 0.00 46 1008.6
20260507165559 60 232 7.0 12.0 0.00 0.00 0.00 47 1008.6
20260507165049 60 221 7.0 12.0 0.00 0.00 0.00 44 1008.6
20260507164537 60 222 6.0 10.0 0.00 0.00 0.00 45 1008.6
20260507164024 60 223 6.0 14.0 0.00 0.00 0.00 43 1008.8
20260507163001 58 215 6.0 16.0 0.00 0.00 0.00 48 1008.8
20260507162449 58 217 6.0 16.0 0.00 0.00 0.00 45 1008.8
20260507161937 58 241 5.0 12.0 0.00 0.00 0.00 45 1008.8
20260507161431 58 235 6.0 12.0 0.00 0.00 0.00 45 1008.8
20260507160925 58 245 6.0 11.0 0.00 0.00 0.00 43 1008.8
20260507160415 58 242 6.0 15.0 0.00 0.00 0.00 43 1008.9
20260507155909 58 259 6.0 16.0 0.00 0.00 0.00 46 1009.1
20260507155402 58 257 5.0 12.0 0.00 0.00 0.00 46 1009.1
20260507154852 57 246 4.0 11.0 0.00 0.00 0.00 45 1009.1
20260507154342 57 244 3.0 11.0 0.00 0.00 0.00 48 1009.3
20260507153843 57 232 5.0 14.0 0.00 0.00 0.00 50 1009.3
20260507153335 56 232 6.0 14.0 0.00 0.00 0.00 46 1009.1
20260507152828 56 231 4.0 13.0 0.00 0.00 0.00 49 1009.1
20260507151819 56 238 3.0 10.0 0.00 0.00 0.00 48 1009.1
20260507151306 56 239 4.0 10.0 0.00 0.00 0.00 47 1009.6
20260507150757 56 297 4.0 9.0 0.00 0.00 0.00 51 1009.6
20260507150253 56 298 4.0 9.0 0.00 0.00 0.00 49 1009.6
20260507145741 56 311 4.0 9.0 0.00 0.00 0.00 48 1009.7
20260507145235 56 314 5.0 17.0 0.00 0.00 0.00 47 1009.7
20260507144725 56 321 5.0 17.0 0.00 0.00 0.00 50 1009.7
20260507144211 55 260 4.0 12.0 0.00 0.00 0.00 50 1009.6
20260507143705 55 250 4.0 12.0 0.00 0.00 0.00 53 1009.6
20260507143204 55 264 4.0 9.0 0.00 0.01 0.00 49 1009.6
20260507142659 55 264 3.0 9.0 0.00 0.01 0.00 52 1010.0
20260507142158 55 264 3.0 9.0 0.00 0.01 0.00 53 1010.0
20260507141648 54 268 4.0 11.0 0.00 0.01 0.00 56 1009.9
20260507141146 54 268 5.0 11.0 0.00 0.01 0.00 57 1010.2
20260507140647 54 295 4.0 9.0 0.00 0.01 0.00 60 1010.2
20260507140142 53 295 3.0 9.0 0.00 0.01 0.00 59 1010.2
20260507135640 53 300 4.0 9.0 0.00 0.01 0.00 60 1010.2
20260507135143 53 300 4.0 9.0 0.00 0.01 0.00 61 1010.2
20260507134632 52 300 3.0 9.0 0.00 0.01 0.00 64 1010.2
20260507134130 52 303 3.0 8.0 0.00 0.01 0.00 65 1010.3
20260507133621 51 305 4.0 7.0 0.00 0.01 0.00 65 1010.2
20260507132616 50 309 3.0 7.0 0.00 0.02 0.00 71 1010.4
20260507132117 49 309 3.0 7.0 0.00 0.02 0.00 73 1010.4
20260507131615 49 312 3.0 7.0 0.00 0.03 0.00 75 1010.3
20260507131115 48 313 3.0 6.0 0.00 0.03 0.00 76 1010.2
20260507130617 47 313 3.0 6.0 0.00 0.03 0.00 81 1010.1
20260507130112 46 313 2.0 6.0 0.00 0.03 0.00 85 1010.1
20260507125611 46 313 2.0 5.0 0.00 0.03 0.00 89 1010.2
20260507125104 45 313 2.0 5.0 0.00 0.03 0.00 92 1010.2
20260507124559 44 314 2.0 5.0 0.00 0.03 0.00 94 1010.1
20260507124053 44 313 2.0 5.0 0.00 0.03 0.00 96 1010.2
20260507123547 43 314 1.0 4.0 0.00 0.03 0.00 96 1010.1
20260507123037 43 314 1.0 4.0 0.00 0.03 0.00 96 1010.1
20260507122020 42 314 0.0 0.0 0.00 0.03 0.00 96 1010.1
20260507121519 41 313 0.0 0.0 0.00 0.04 0.00 96 1010.0
20260507120506 40 314 0.0 0.0 0.00 0.04 0.00 95 1010.0
20260507115956 39 313 0.0 0.0 0.00 0.05 0.00 94 1010.0
20260507114941 38 314 0.0 0.0 0.00 0.07 0.00 94 1009.9
20260507113932 38 313 0.0 0.0 0.00 0.08 0.00 93 1009.8
20260507113430 37 314 0.0 0.0 0.00 0.08 0.00 92 1009.8
20260507112926 37 313 0.0 0.0 0.00 0.08 0.00 92 1009.5
20260507111927 37 314 0.0 0.0 0.00 0.08 0.00 92 1009.5
20260507111426 37 314 0.0 0.0 0.00 0.08 0.00 91 1009.3
20260507110415 37 314 0.0 0.0 0.00 0.09 0.00 91 1009.3
20260507105909 37 313 0.0 0.0 0.00 0.09 0.00 91 1009.3
20260507105405 37 313 0.0 0.0 0.00 0.09 0.00 91 1009.3
20260507104852 37 314 0.0 0.0 0.00 0.09 0.00 91 1009.4
20260507103340 37 314 0.0 0.0 0.00 0.11 0.00 90 1009.3
20260507102832 37 314 0.0 0.0 0.00 0.12 0.00 90 1009.0
20260507102332 37 313 0.0 0.0 0.00 0.13 0.00 90 1009.0
20260507101833 37 314 0.0 0.0 0.00 0.13 0.00 90 1009.0
20260507101317 38 314 0.0 0.0 0.00 0.14 0.00 90 1008.9
20260507100807 38 314 0.0 0.0 0.00 0.15 0.00 89 1008.9
20260507100256 38 314 0.0 0.0 0.00 0.17 0.00 89 1008.9
20260507095751 38 313 0.0 0.0 0.00 0.19 0.00 89 1009.0
20260507095246 38 314 0.0 0.0 0.00 0.20 0.00 89 1009.0
20260507093738 39 314 0.0 0.0 0.00 0.25 0.00 89 1008.9
20260507093221 39 314 0.0 0.0 0.00 0.25 0.00 89 1008.9
20260507092716 39 314 0.0 0.0 0.00 0.25 0.00 89 1009.0
20260507092212 39 314 0.0 0.0 0.00 0.25 0.00 88 1009.0
20260507091706 39 314 0.0 0.0 0.00 0.26 0.00 88 1009.1
20260507091146 40 313 0.0 0.0 0.00 0.27 0.00 88 1009.4
20260507090645 40 314 0.0 0.0 0.00 0.27 0.00 87 1009.4
20260507085622 40 314 0.0 0.0 0.00 0.30 0.00 87 1009.3
20260507085120 40 313 0.0 0.0 0.00 0.31 0.00 86 1009.3
20260507084613 41 314 0.0 0.0 0.00 0.33 0.00 86 1009.4
20260507084110 41 314 0.0 0.0 0.00 0.34 0.00 85 1009.4
20260507083602 41 313 0.0 0.0 0.00 0.35 0.00 84 1009.4
20260507082600 41 314 0.0 0.0 0.00 0.36 0.00 83 1009.4
20260507081552 42 314 0.0 0.0 0.00 0.37 0.00 83 1009.4
20260507081021 42 314 0.0 0.0 0.00 0.38 0.00 82 1009.4
20260507080518 42 314 0.0 0.0 0.00 0.40 0.00 81 1009.4
20260507075406 43 314 0.0 0.0 0.00 0.42 0.00 80 1009.4
20260507074855 43 313 0.0 0.0 0.00 0.42 0.00 80 1009.4
20260507074336 43 314 0.0 0.0 0.00 0.42 0.00 80 1009.5
20260507073835 44 314 0.0 0.0 0.00 0.42 0.00 79 1009.5
20260507073335 44 314 0.0 0.0 0.00 0.42 0.00 79 1009.5
20260507072834 44 314 0.0 0.0 0.00 0.42 0.00 78 1009.6
20260507072331 44 314 0.0 0.0 0.00 0.42 0.00 77 1009.6
20260507071812 45 314 0.0 0.0 0.00 0.42 0.00 77 1009.6
20260507071257 45 314 0.0 0.0 0.00 0.42 0.00 77 1009.5
20260507070749 45 314 0.0 0.0 0.00 0.42 0.00 77 1009.5
20260507070221 46 313 0.0 0.0 0.00 0.43 0.00 76 1009.5
20260507065201 46 314 0.0 0.0 0.00 0.43 0.00 76 1009.7
20260507064136 47 314 0.0 0.0 0.00 0.45 0.00 76 1009.7
20260507063634 47 314 0.0 0.0 0.00 0.45 0.00 76 1009.7
20260507063057 47 314 0.0 0.0 0.00 0.46 0.00 76 1009.8
20260507062522 47 314 0.0 0.0 0.00 0.46 0.00 75 1009.7
20260507062014 47 314 0.0 0.0 0.00 0.47 0.00 75 1009.7
20260507061509 48 314 0.0 0.0 0.00 0.47 0.00 74 1009.7
20260507061007 48 314 0.0 0.0 0.00 0.47 0.00 75 1009.9
20260507060449 48 314 0.0 0.0 0.00 0.48 0.00 75 1009.9
20260507055943 48 314 0.0 0.0 0.00 0.48 0.00 75 1010.1
20260507055406 48 314 0.0 0.0 0.00 0.49 0.00 75 1010.1
20260507054824 48 314 0.0 0.0 0.00 0.49 0.00 75 1010.1
20260507054321 48 314 0.0 0.0 0.00 0.49 0.00 75 1010.3
20260507053824 48 314 0.0 0.0 0.00 0.49 0.00 76 1010.3
20260507052734 48 314 0.0 3.0 0.00 0.49 0.00 76 1010.3
20260507052239 49 314 0.0 3.0 0.00 0.49 0.00 76 1010.3
20260507051717 49 314 0.0 1.0 0.00 0.50 0.00 76 1010.3
20260507051214 49 314 0.0 0.0 0.00 0.50 0.00 76 1010.3
20260507050155 49 314 0.0 0.0 0.00 0.51 0.00 76 1010.3
20260507045628 49 314 0.0 0.0 0.00 0.51 0.00 76 1010.5
20260507045126 49 314 0.0 0.0 0.00 0.51 0.00 76 1010.5
20260507044623 49 314 0.0 0.0 0.00 0.51 0.00 76 1010.5
20260507044111 49 314 0.0 0.0 0.00 0.51 0.00 76 1010.4
20260507043553 49 314 0.0 0.0 0.00 0.51 0.00 76 1010.4
20260507043039 49 314 0.0 0.0 0.00 0.52 0.00 76 1010.4
20260507042533 49 314 0.0 0.0 0.00 0.52 0.00 76 1010.3
20260507040443 50 314 0.0 0.0 0.00 0.52 0.00 75 1010.3
20260507035910 50 314 0.0 0.0 0.00 0.52 0.52 75 1010.1
20260507034855 50 314 0.0 0.0 0.00 0.52 0.52 74 1010.1
20260507033837 50 314 0.0 0.0 0.00 0.52 0.52 74 1010.3
20260507033329 50 314 0.0 0.0 0.00 0.52 0.52 74 1010.4
20260507032807 50 314 0.0 0.0 0.00 0.52 0.52 74 1010.0
20260507031232 51 314 0.0 0.0 0.00 0.52 0.52 73 1009.7
20260507030716 51 314 0.0 0.0 0.00 0.52 0.52 72 1009.7
20260507030214 51 314 0.0 0.0 0.00 0.52 0.52 71 1009.7
20260507025709 51 314 0.0 0.0 0.00 0.52 0.52 71 1009.8
20260507025155 51 314 0.0 2.0 0.00 0.52 0.52 70 1009.8
20260507024643 51 314 0.0 2.0 0.00 0.52 0.52 69 1009.8
20260507024134 51 314 0.0 0.0 0.00 0.52 0.52 68 1009.8
20260507023107 51 314 0.0 0.0 0.00 0.52 0.52 67 1009.8
20260507022549 51 314 0.0 0.0 0.00 0.52 0.52 67 1009.7
20260507021023 52 314 0.0 1.0 0.00 0.52 0.52 66 1009.6
20260507020504 52 314 0.0 2.0 0.00 0.52 0.52 66 1009.6
20260507015958 52 314 0.0 1.0 0.00 0.52 0.52 66 1009.5
20260507014941 52 314 0.0 1.0 0.00 0.52 0.52 65 1009.5
20260507013938 52 314 0.0 0.0 0.00 0.52 0.52 65 1009.0
20260507012935 52 314 0.0 2.0 0.00 0.52 0.52 65 1008.9